Location: Carrer del Canonge
(41.4901°N, 2.2931°E)
Time: 18:30:54
(UTC+00:00)

SPOT 3 Rocket - Pass Details

Date: 19 June 2021
Orbit: 779 x 794 km, 98.7° (Epoch: 01 August)

Event Time Altitude Azimuth Distance (km) Brightness Sun altitude
Exits shadow 19:59:23 - 143° (SE) 2,699 5.7 -5.6°
Reaches altitude 10° 20:00:21 10° 140° (SE) 2,335 5.4 -5.8°
Maximum altitude 20:05:12 43° 70° (ENE) 1,095 4.1 -6.5°
Drops below altitude 10° 20:10:05 10° 360° (N) 2,359 6.7 -7.2°
Sets 20:12:31 0° 354° (N) 3,295 7.6 -7.5°
